"Pseudo-MPEC" for P21Wk3z

Created 2024 Jul 20 5:22:05 UT using Find_Orb

Click here for an explanation of pseudo-MPECs

 
 Astrometry: 
     P21Wk3z  C2024 07 06.47349820 57 27.850-29 04 11.04   ~7B07 22.66GVNEOCPF52
     P21Wk3z  C2024 07 06.48333320 57 27.911-29 04 07.96   ~7B07 22.51GVNEOCPF52
     P21Wk3z  C2024 07 06.49317020 57 27.944-29 04 04.29   ~7B07 21.68GVNEOCPF52
     P21Wk3z  C2024 07 06.50300620 57 28.022-29 04 01.50   ~7B07 22.13GVNEOCPF52
     P21Wk3z  C2024 07 06.50575220 57 28.037-29 04 00.25   ~7B07 22.31GVNEOCPF52
     P21Wk3z* C2024 07 06.51690320 57 28.109-29 03 56.80   ~76Hb 22.95wXNEOCPF52
     P21Wk3z  C2024 07 06.52806420 57 28.180-29 03 52.86   ~76Hb 22.57wXNEOCPF52
     P21Wk3z  C2024 07 06.53922520 57 28.231-29 03 49.04   ~76Hb 22.25wXNEOCPF52
     P21Wk3z 3C2024 07 11.59881020 58 04.051-28 32 16.22   ~7BFq 22.94GVNEOCPT14
     P21Wk3z 3C2024 07 11.59978920 58 04.044-28 32 15.97   ~7BFq 22.87GVNEOCPT14
     P21Wk3z 3C2024 07 16.53550720 57 49.102-27 54 17.12   ~7GDb 22.61GVNEOCPT14
     P21Wk3z 3C2024 07 16.53671620 57 49.087-27 54 16.43   ~7GDb 22.54GVNEOCPT14
     P21Wk3z 3C2024 07 16.53802720 57 49.071-27 54 15.79   ~7GDb 22.40GVNEOCPT14

Station data:
(F52) Pan-STARRS 2, Haleakala  (N20.707382 W156.255910)  US/Hawaii.
   Observers J. Bulger, T. Dukes, T. Lowe, A. Schultz, M. Willman. Measurers
   K. Chambers, S. Chastel, T. de Boer, L. Denneau, J. Fairlamb, H.
   Flewelling, M. Huber, C.-C. Lin, E. Magnier, Y. Ramanjooloo, R. Wainscoat,
   R. Weryk. 1.8-m Ritchey-Chrétien + CCD.
(T14) Mauna Kea-UH/Tholen NEO Follow-Up (CFHT)  (N19.825252 W155.468876)
   US/Hawaii.  Observer R. Weryk. 3.6-m Canada-France-Hawaii Telescope.

Orbital elements:  P21Wk3z
   Perihelion 2024 Sep 28.24181 +/- 0.0243 TT =  5:48:12 (JD 2460581.74181)
Epoch 2024 Jul 16.0 TT = JDT 2460507.5   Earth MOID: 0.2975   Ma: 0.0199
M 344.19725874 +/- 0.014            (J2000 ecliptic)             AutoNEOCP
n   0.21285501 +/- 0.000238         Peri.   31.07184 +/- 0.037
a   2.77809303 +/- 0.00207          Node   322.55029 +/- 0.006
e   0.5345884 +/- 0.000379          Incl.    8.69515 +/- 0.0038
P   4.63042                H 22.10  G  0.15   U  7.1
q 1.29295660 +/- 0.000296    Q 4.26322945 +/- 0.0042
From 13 observations 2024 July 6-16; mean residual 0".11
Residuals in arcseconds: 
240706 F52  .09+  .06-    240706 F52  .06+  .12-    240716 T14  .05-  .02-    
240706 F52  .09+  .18-    240706 F52  .13+  .05+    240716 T14  .00   .03+    
240706 F52  .26-  .27+    240706 F52  .07-  .07+    240716 T14  .05+  .02-    
240706 F52  .01-  .19-    240711 T14  .02+  .09+    
240706 F52  .02-  .15+    240711 T14  .02-  .09-    

Ephemerides (geocentric):
Date (UTC) HH   RA             Dec           delta  r     elong  mag " sig PA
---- --------  ------------   ------------  ------ ------ -----  --- --------
2024 07 20 05  20 57 07.531   -27 20 13.16  .49237 1.4973 165.1 22.1 .147  87
2024 07 20 06  20 57 06.914   -27 19 48.30  .49210 1.4971 165.2 22.1 .149  87
2024 07 20 07  20 57 06.293   -27 19 23.39  .49183 1.4969 165.2 22.1 .151  87
2024 07 20 08  20 57 05.670   -27 18 58.45  .49156 1.4967 165.2 22.1 .153  87
2024 07 20 09  20 57 05.043   -27 18 33.46  .49129 1.4965 165.3 22.1 .154  87
2024 07 20 10  20 57 04.414   -27 18 08.43  .49103 1.4962 165.3 22.1 .156  87
2024 07 20 11  20 57 03.781   -27 17 43.36  .49076 1.4960 165.3 22.1 .158  87
2024 07 20 12  20 57 03.146   -27 17 18.25  .49049 1.4958 165.4 22.1 .160  87
2024 07 20 13  20 57 02.507   -27 16 53.09  .49022 1.4956 165.4 22.1 .162  87
2024 07 20 14  20 57 01.865   -27 16 27.89  .48996 1.4954 165.4 22.1 .164  87
2024 07 20 15  20 57 01.220   -27 16 02.65  .48969 1.4952 165.5 22.1 .166  87
2024 07 20 16  20 57 00.572   -27 15 37.37  .48942 1.4949 165.5 22.1 .168  87
2024 07 20 17  20 56 59.921   -27 15 12.04  .48916 1.4947 165.5 22.1 .170  87
2024 07 20 18  20 56 59.267   -27 14 46.67  .48889 1.4945 165.6 22.1 .172  87
2024 07 20 19  20 56 58.610   -27 14 21.26  .48863 1.4943 165.6 22.1 .173  86
2024 07 20 20  20 56 57.950   -27 13 55.80  .48836 1.4941 165.6 22.1 .175  86
2024 07 20 21  20 56 57.287   -27 13 30.30  .48810 1.4939 165.7 22.1 .177  86
2024 07 20 22  20 56 56.621   -27 13 04.76  .48783 1.4937 165.7 22.0 .179  86
2024 07 20 23  20 56 55.952   -27 12 39.18  .48757 1.4934 165.7 22.0 .181  86
2024 07 21 00  20 56 55.280   -27 12 13.55  .48730 1.4932 165.8 22.0 .183  86
2024 07 21 01  20 56 54.604   -27 11 47.88  .48704 1.4930 165.8 22.0 .185  86
2024 07 21 02  20 56 53.926   -27 11 22.16  .48677 1.4928 165.8 22.0 .187  86
2024 07 21 03  20 56 53.245   -27 10 56.41  .48651 1.4926 165.9 22.0 .189  86
2024 07 21 04  20 56 52.561   -27 10 30.61  .48625 1.4924 165.9 22.0 .191  86
2024 07 21 05  20 56 51.873   -27 10 04.76  .48598 1.4922 166.0 22.0 .193  86
2024 07 21 06  20 56 51.183   -27 09 38.87  .48572 1.4919 166.0 22.0 .195  86
2024 07 21 07  20 56 50.490   -27 09 12.94  .48546 1.4917 166.0 22.0 .197  86
2024 07 21 08  20 56 49.794   -27 08 46.97  .48520 1.4915 166.1 22.0 .199  86
2024 07 21 09  20 56 49.094   -27 08 20.95  .48493 1.4913 166.1 22.0 .201  86
2024 07 21 10  20 56 48.392   -27 07 54.89  .48467 1.4911 166.1 22.0 .203  86
2024 07 21 11  20 56 47.687   -27 07 28.78  .48441 1.4909 166.2 22.0 .205  86
2024 07 21 12  20 56 46.979   -27 07 02.63  .48415 1.4907 166.2 22.0 .208  86
2024 07 21 13  20 56 46.268   -27 06 36.44  .48389 1.4904 166.2 22.0 .210  86
2024 07 21 14  20 56 45.553   -27 06 10.20  .48363 1.4902 166.3 22.0 .212  86
2024 07 21 15  20 56 44.836   -27 05 43.92  .48337 1.4900 166.3 22.0 .214  86
2024 07 21 16  20 56 44.116   -27 05 17.60  .48311 1.4898 166.3 22.0 .216  85
2024 07 21 17  20 56 43.393   -27 04 51.23  .48285 1.4896 166.4 22.0 .218  85
2024 07 21 18  20 56 42.667   -27 04 24.82  .48259 1.4894 166.4 22.0 .220  85
2024 07 21 19  20 56 41.938   -27 03 58.36  .48233 1.4892 166.4 22.0 .222  85
2024 07 21 20  20 56 41.206   -27 03 31.86  .48207 1.4890 166.5 22.0 .224  85
2024 07 21 21  20 56 40.472   -27 03 05.32  .48181 1.4887 166.5 22.0 .226  85
2024 07 21 22  20 56 39.734   -27 02 38.73  .48155 1.4885 166.5 22.0 .228  85
2024 07 21 23  20 56 38.993   -27 02 12.09  .48129 1.4883 166.6 22.0 .231  85
2024 07 22 00  20 56 38.249   -27 01 45.42  .48103 1.4881 166.6 22.0 .233  85
2024 07 22 01  20 56 37.503   -27 01 18.69  .48078 1.4879 166.6 22.0 .235  85
2024 07 22 02  20 56 36.753   -27 00 51.93  .48052 1.4877 166.7 22.0 .237  85
2024 07 22 03  20 56 36.001   -27 00 25.12  .48026 1.4875 166.7 22.0 .239  85
2024 07 22 04  20 56 35.245   -26 59 58.26  .48000 1.4872 166.7 22.0 .241  85